User: anonymous   Login
Location: Newark
(51.5033°N, 0.1199°W)
Time: 13:57:38
(UTC+00:00)
Language:

METEOR M2 - Orbit

View from above orbital plane
View from above orbital plane
View from above satellite
View from above satellite

Ground track
Ground track

The orbit data is extracted from the following two-line orbital elements,

1 40069U 14037A   19265.15137166 -.00000005  00000-0  17329-4 0  9999
2 40069  98.5420 307.3359 0005753 353.0232   7.0875 14.20664992269970
Epoch (UTC): 22 September 2019 03:37:58
Eccentricity: 0.0005753
inclination: 98.5420°
perigee height: 819 km
apogee height: 827 km
right ascension of ascending node: 307.3359°
argument of perigee: 353.0232°
revolutions per day: 14.20664992
mean anomaly at epoch: 7.0875°
orbit number at epoch: 26997

The dashed part of the orbit path shows where the satellite is in the earth's shadow,  

DLR